Time,TemperatureF,DewpointF,PressureIn,WindDirection,WindDirectionDegrees,WindSpeedMPH,WindSpeedGustMPH,Humidity,HourlyPrecipIn,Conditions,Clouds,dailyrainin,SoftwareType,DateUTC
2013-03-06 00:01:00,33.0,7.0,-100.00,West,269,5.0,5.0,32,-99.99,,,-99.99,,2013-03-06 07:01:00,
2013-03-06 00:11:00,29.0,8.0,-100.00,West,268,1.0,5.0,39,-99.99,,,-99.99,,2013-03-06 07:11:00,
2013-03-06 00:22:00,31.0,8.0,-100.00,WNW,299,3.0,3.0,36,-99.99,,,-99.99,,2013-03-06 07:22:00,
2013-03-06 00:31:00,32.0,9.0,-100.00,NW,326,3.0,4.0,37,-99.99,,,-99.99,,2013-03-06 07:31:00,
2013-03-06 00:42:00,28.0,10.0,-100.00,NW,322,2.0,3.0,44,-99.99,,,-99.99,,2013-03-06 07:42:00,
2013-03-06 00:52:00,32.0,8.0,-100.00,WNW,303,4.0,4.0,34,-99.99,,,-99.99,,2013-03-06 07:52:00,
2013-03-06 01:01:00,33.0,7.0,-100.00,NW,311,2.0,3.0,33,-99.99,,,-99.99,,2013-03-06 08:01:00,
2013-03-06 01:11:00,33.0,7.0,-100.00,NW,325,2.0,3.0,33,-99.99,,,-99.99,,2013-03-06 08:11:00,
2013-03-06 01:21:00,29.0,9.0,-100.00,NW,311,5.0,6.0,42,-99.99,,,-99.99,,2013-03-06 08:21:00,
2013-03-06 01:31:00,32.0,7.0,-100.00,NW,306,4.0,5.0,34,-99.99,,,-99.99,,2013-03-06 08:31:00,
2013-03-06 01:42:00,33.0,7.0,-100.00,WNW,302,4.0,5.0,33,-99.99,,,-99.99,,2013-03-06 08:42:00,
2013-03-06 01:52:00,33.0,7.0,-100.00,NW,321,2.0,4.0,33,-99.99,,,-99.99,,2013-03-06 08:52:00,
2013-03-06 02:01:00,33.0,7.0,-100.00,NW,321,2.0,4.0,33,-99.99,,,-99.99,,2013-03-06 09:01:00,
2013-03-06 02:12:00,30.0,9.0,-100.00,NW,311,6.0,6.0,40,-99.99,,,-99.99,,2013-03-06 09:12:00,
2013-03-06 02:21:00,30.0,9.0,-100.00,NW,311,6.0,6.0,40,-99.99,,,-99.99,,2013-03-06 09:21:00,
2013-03-06 02:31:00,32.0,7.0,-100.00,North,351,3.0,3.0,34,-99.99,,,-99.99,,2013-03-06 09:31:00,
2013-03-06 02:41:00,30.0,9.0,-100.00,NNW,331,2.0,3.0,39,-99.99,,,-99.99,,2013-03-06 09:41:00,
2013-03-06 02:51:00,32.0,8.0,-100.00,NW,315,2.0,2.0,35,-99.99,,,-99.99,,2013-03-06 09:51:00,
2013-03-06 03:01:00,30.0,9.0,-100.00,NW,320,4.0,4.0,39,-99.99,,,-99.99,,2013-03-06 10:01:00,
2013-03-06 03:11:00,26.0,11.0,-100.00,NW,314,8.0,8.0,51,-99.99,,,-99.99,,2013-03-06 10:11:00,
2013-03-06 03:21:00,26.0,11.0,-100.00,NW,314,8.0,8.0,51,-99.99,,,-99.99,,2013-03-06 10:21:00,
2013-03-06 03:31:00,31.0,8.0,-100.00,NW,311,5.0,5.0,37,-99.99,,,-99.99,,2013-03-06 10:31:00,
2013-03-06 03:41:00,31.0,8.0,-100.00,NW,311,5.0,5.0,37,-99.99,,,-99.99,,2013-03-06 10:41:00,
2013-03-06 03:51:00,32.0,8.0,-100.00,WNW,300,2.0,3.0,34,-99.99,,,-99.99,,2013-03-06 10:51:00,
2013-03-06 04:01:00,32.0,7.0,-100.00,WNW,299,2.0,2.0,34,-99.99,,,-99.99,,2013-03-06 11:01:00,
2013-03-06 04:11:00,32.0,7.0,-100.00,WNW,299,2.0,2.0,34,-99.99,,,-99.99,,2013-03-06 11:11:00,
2013-03-06 04:22:00,30.0,9.0,-100.00,WSW,242,1.0,3.0,39,-99.99,,,-99.99,,2013-03-06 11:22:00,
2013-03-06 04:31:00,30.0,9.0,-100.00,WSW,242,1.0,3.0,39,-99.99,,,-99.99,,2013-03-06 11:31:00,
2013-03-06 04:42:00,28.0,10.0,-100.00,South,182,1.0,2.0,45,-99.99,,,-99.99,,2013-03-06 11:42:00,
2013-03-06 04:52:00,30.0,9.0,-100.00,WSW,237,3.0,3.0,41,-99.99,,,-99.99,,2013-03-06 11:52:00,
2013-03-06 05:01:00,30.0,10.0,-100.00,West,263,5.0,5.0,42,-99.99,,,-99.99,,2013-03-06 12:01:00,
2013-03-06 05:11:00,30.0,9.0,-100.00,West,280,1.0,3.0,40,-99.99,,,-99.99,,2013-03-06 12:11:00,
2013-03-06 05:21:00,30.0,9.0,-100.00,West,280,1.0,3.0,40,-99.99,,,-99.99,,2013-03-06 12:21:00,
2013-03-06 05:32:00,30.0,9.0,-100.00,SW,234,3.0,3.0,40,-99.99,,,-99.99,,2013-03-06 12:32:00,
2013-03-06 05:42:00,29.0,10.0,-100.00,SW,236,6.0,6.0,44,-99.99,,,-99.99,,2013-03-06 12:42:00,
2013-03-06 05:52:00,26.0,12.0,-100.00,WSW,242,9.0,9.0,55,-99.99,,,-99.99,,2013-03-06 12:52:00,
2013-03-06 06:01:00,26.0,12.0,-100.00,WSW,242,9.0,9.0,55,-99.99,,,-99.99,,2013-03-06 13:01:00,
2013-03-06 06:11:00,25.0,12.0,-100.00,WSW,257,7.0,7.0,56,-99.99,,,-99.99,,2013-03-06 13:11:00,
2013-03-06 06:21:00,25.0,12.0,-100.00,WSW,257,7.0,7.0,56,-99.99,,,-99.99,,2013-03-06 13:21:00,
2013-03-06 06:31:00,26.0,13.0,-100.00,WSW,250,9.0,10.0,56,-99.99,,,-99.99,,2013-03-06 13:31:00,
2013-03-06 06:42:00,26.0,13.0,-100.00,WSW,251,9.0,9.0,55,-99.99,,,-99.99,,2013-03-06 13:42:00,
2013-03-06 06:51:00,25.0,13.0,-100.00,SSW,192,3.0,7.0,58,-99.99,,,-99.99,,2013-03-06 13:51:00,
2013-03-06 07:01:00,26.0,13.0,-100.00,WSW,237,7.0,7.0,56,-99.99,,,-99.99,,2013-03-06 14:01:00,
2013-03-06 07:11:00,26.0,13.0,-100.00,WSW,237,7.0,7.0,56,-99.99,,,-99.99,,2013-03-06 14:11:00,
2013-03-06 07:21:00,25.0,13.0,-100.00,WSW,257,10.0,10.0,59,-99.99,,,-99.99,,2013-03-06 14:21:00,
2013-03-06 07:32:00,25.0,13.0,-100.00,WSW,257,10.0,10.0,59,-99.99,,,-99.99,,2013-03-06 14:32:00,
2013-03-06 07:41:00,27.0,14.0,-100.00,NW,315,6.0,7.0,56,-99.99,,,-99.99,,2013-03-06 14:41:00,
2013-03-06 07:52:00,30.0,12.0,-100.00,NNE,13,3.0,4.0,47,-99.99,,,-99.99,,2013-03-06 14:52:00,
2013-03-06 08:01:00,30.0,12.0,-100.00,NNE,13,3.0,4.0,47,-99.99,,,-99.99,,2013-03-06 15:01:00,
2013-03-06 08:11:00,32.0,13.0,-100.00,North,0,0.0,1.0,45,-99.99,,,-99.99,,2013-03-06 15:11:00,
2013-03-06 08:21:00,33.0,12.0,-100.00,East,79,0.0,1.0,41,-99.99,,,-99.99,,2013-03-06 15:21:00,
2013-03-06 08:32:00,36.0,11.0,-100.00,ENE,64,2.0,3.0,35,-99.99,,,-99.99,,2013-03-06 15:32:00,
2013-03-06 08:41:00,36.0,11.0,-100.00,ENE,64,2.0,3.0,35,-99.99,,,-99.99,,2013-03-06 15:41:00,
2013-03-06 08:52:00,34.0,16.0,-100.00,SE,143,4.0,5.0,46,-99.99,,,-99.99,,2013-03-06 15:52:00,
2013-03-06 09:01:00,34.0,16.0,-100.00,SSE,163,2.0,4.0,48,-99.99,,,-99.99,,2013-03-06 16:01:00,
2013-03-06 09:11:00,34.0,16.0,-100.00,SSE,163,2.0,4.0,48,-99.99,,,-99.99,,2013-03-06 16:11:00,
2013-03-06 09:21:00,35.0,15.0,-100.00,ESE,112,1.0,3.0,42,-99.99,,,-99.99,,2013-03-06 16:21:00,
2013-03-06 09:32:00,36.0,14.0,-100.00,NNW,336,1.0,2.0,39,-99.99,,,-99.99,,2013-03-06 16:32:00,
2013-03-06 09:41:00,36.0,14.0,-100.00,NNE,30,1.0,2.0,40,-99.99,,,-99.99,,2013-03-06 16:41:00,
2013-03-06 09:51:00,37.0,15.0,-100.00,ESE,118,1.0,2.0,40,-99.99,,,-99.99,,2013-03-06 16:51:00,
2013-03-06 10:01:00,36.0,15.0,-100.00,ESE,119,3.0,3.0,40,-99.99,,,-99.99,,2013-03-06 17:01:00,
2013-03-06 10:11:00,36.0,15.0,-100.00,ESE,119,3.0,3.0,40,-99.99,,,-99.99,,2013-03-06 17:11:00,
2013-03-06 10:21:00,37.0,13.0,-100.00,NE,50,1.0,4.0,37,-99.99,,,-99.99,,2013-03-06 17:21:00,
2013-03-06 10:31:00,37.0,16.0,-100.00,NNE,32,4.0,4.0,40,-99.99,,,-99.99,,2013-03-06 17:31:00,
2013-03-06 10:41:00,37.0,16.0,-100.00,NNE,32,4.0,4.0,40,-99.99,,,-99.99,,2013-03-06 17:41:00,
2013-03-06 10:52:00,42.0,12.0,-100.00,NNW,336,1.0,4.0,28,-99.99,,,-99.99,,2013-03-06 17:52:00,
2013-03-06 11:01:00,42.0,12.0,-100.00,NNW,336,1.0,4.0,28,-99.99,,,-99.99,,2013-03-06 18:01:00,
2013-03-06 11:28:00,42.0,12.0,-100.00,NE,46,4.0,7.0,28,-99.99,,,-99.99,,2013-03-06 18:28:00,
2013-03-06 11:42:00,42.0,11.0,-100.00,SE,132,4.0,9.0,27,-99.99,,,-99.99,,2013-03-06 18:42:00,
2013-03-06 11:52:00,44.0,11.0,-100.00,SSE,153,2.0,5.0,26,-99.99,,,-99.99,,2013-03-06 18:52:00,
2013-03-06 12:02:00,43.0,12.0,-100.00,SE,146,6.0,8.0,27,-99.99,,,-99.99,,2013-03-06 19:02:00,
2013-03-06 12:11:00,43.0,12.0,-100.00,SE,146,6.0,8.0,27,-99.99,,,-99.99,,2013-03-06 19:11:00,
2013-03-06 12:21:00,44.0,13.0,-100.00,NE,53,2.0,5.0,27,-99.99,,,-99.99,,2013-03-06 19:21:00,
2013-03-06 12:32:00,43.0,13.0,-100.00,South,191,7.0,11.0,28,-99.99,,,-99.99,,2013-03-06 19:32:00,
2013-03-06 12:42:00,43.0,12.0,-100.00,SSE,152,9.0,10.0,27,-99.99,,,-99.99,,2013-03-06 19:42:00,
2013-03-06 12:52:00,44.0,13.0,-100.00,South,175,5.0,12.0,28,-99.99,,,-99.99,,2013-03-06 19:52:00,
2013-03-06 13:01:00,44.0,13.0,-100.00,South,175,5.0,12.0,28,-99.99,,,-99.99,,2013-03-06 20:01:00,
2013-03-06 13:11:00,44.0,13.0,-100.00,South,169,10.0,15.0,27,-99.99,,,-99.99,,2013-03-06 20:11:00,
2013-03-06 13:22:00,45.0,14.0,-100.00,South,183,12.0,15.0,28,-99.99,,,-99.99,,2013-03-06 20:22:00,
2013-03-06 13:32:00,45.0,13.0,-100.00,South,185,12.0,16.0,27,-99.99,,,-99.99,,2013-03-06 20:32:00,
2013-03-06 13:42:00,46.0,13.0,-100.00,SSW,202,10.0,13.0,26,-99.99,,,-99.99,,2013-03-06 20:42:00,
2013-03-06 13:52:00,47.0,13.0,-100.00,SW,220,10.0,13.0,25,-99.99,,,-99.99,,2013-03-06 20:52:00,
2013-03-06 14:01:00,46.0,14.0,-100.00,South,181,10.0,16.0,26,-99.99,,,-99.99,,2013-03-06 21:01:00,
2013-03-06 14:11:00,46.0,14.0,-100.00,South,181,10.0,16.0,26,-99.99,,,-99.99,,2013-03-06 21:11:00,
2013-03-06 14:21:00,47.0,13.0,-100.00,South,185,10.0,12.0,24,-99.99,,,-99.99,,2013-03-06 21:21:00,
2013-03-06 14:31:00,48.0,14.0,-100.00,South,191,9.0,11.0,24,-99.99,,,-99.99,,2013-03-06 21:31:00,
2013-03-06 14:42:00,48.0,14.0,-100.00,SSW,193,12.0,17.0,25,-99.99,,,-99.99,,2013-03-06 21:42:00,
2013-03-06 14:51:00,50.0,15.0,-100.00,SW,225,7.0,14.0,24,-99.99,,,-99.99,,2013-03-06 21:51:00,
2013-03-06 15:01:00,51.0,15.0,-100.00,South,191,3.0,9.0,23,-99.99,,,-99.99,,2013-03-06 22:01:00,
2013-03-06 15:11:00,52.0,16.0,-100.00,SSW,196,13.0,20.0,24,-99.99,,,-99.99,,2013-03-06 22:11:00,
2013-03-06 15:21:00,52.0,16.0,-100.00,SSW,196,13.0,20.0,24,-99.99,,,-99.99,,2013-03-06 22:21:00,
2013-03-06 15:31:00,52.0,17.0,-100.00,SSW,194,12.0,19.0,24,-99.99,,,-99.99,,2013-03-06 22:31:00,
2013-03-06 15:41:00,52.0,18.0,-100.00,SE,141,15.0,18.0,25,-99.99,,,-99.99,,2013-03-06 22:41:00,
2013-03-06 15:51:00,53.0,16.0,-100.00,South,185,15.0,18.0,22,-99.99,,,-99.99,,2013-03-06 22:51:00,
2013-03-06 16:01:00,52.0,16.0,-100.00,South,175,16.0,25.0,23,-99.99,,,-99.99,,2013-03-06 23:01:00,
2013-03-06 16:11:00,53.0,16.0,-100.00,South,191,11.0,14.0,23,-99.99,,,-99.99,,2013-03-06 23:11:00,
2013-03-06 16:21:00,52.0,17.0,-100.00,SSE,151,15.0,17.0,24,-99.99,,,-99.99,,2013-03-06 23:21:00,
2013-03-06 16:31:00,52.0,17.0,-100.00,SSE,151,15.0,17.0,24,-99.99,,,-99.99,,2013-03-06 23:31:00,
2013-03-06 16:41:00,52.0,17.0,-100.00,SSE,159,17.0,19.0,24,-99.99,,,-99.99,,2013-03-06 23:41:00,
2013-03-06 16:52:00,53.0,16.0,-100.00,South,176,15.0,15.0,22,-99.99,,,-99.99,,2013-03-06 23:52:00,
2013-03-06 17:01:00,53.0,17.0,-100.00,South,171,13.0,17.0,24,-99.99,,,-99.99,,2013-03-07 00:01:00,
2013-03-06 17:11:00,52.0,17.0,-100.00,South,176,15.0,18.0,24,-99.99,,,-99.99,,2013-03-07 00:11:00,
2013-03-06 17:21:00,52.0,17.0,-100.00,South,176,15.0,18.0,24,-99.99,,,-99.99,,2013-03-07 00:21:00,
2013-03-06 17:32:00,53.0,16.0,-100.00,SSW,199,23.0,25.0,22,-99.99,,,-99.99,,2013-03-07 00:32:00,
2013-03-06 17:41:00,53.0,16.0,-100.00,SSW,192,26.0,29.0,23,-99.99,,,-99.99,,2013-03-07 00:41:00,
2013-03-06 17:51:00,53.0,16.0,-100.00,SSW,197,25.0,28.0,23,-99.99,,,-99.99,,2013-03-07 00:51:00,
2013-03-06 18:01:00,53.0,16.0,-100.00,SSW,197,25.0,28.0,23,-99.99,,,-99.99,,2013-03-07 01:01:00,
2013-03-06 18:11:00,52.0,17.0,-100.00,SSW,194,26.0,30.0,23,-99.99,,,-99.99,,2013-03-07 01:11:00,
2013-03-06 18:21:00,51.0,16.0,-100.00,SSW,212,16.0,20.0,24,-99.99,,,-99.99,,2013-03-07 01:21:00,
2013-03-06 18:31:00,51.0,16.0,-100.00,SSW,212,16.0,20.0,24,-99.99,,,-99.99,,2013-03-07 01:31:00,
2013-03-06 18:41:00,51.0,15.0,-100.00,SSW,201,25.0,27.0,23,-99.99,,,-99.99,,2013-03-07 01:41:00,
2013-03-06 18:51:00,51.0,14.0,-100.00,SSW,200,27.0,30.0,22,-99.99,,,-99.99,,2013-03-07 01:51:00,
2013-03-06 19:01:00,50.0,14.0,-100.00,SSW,197,25.0,28.0,22,-99.99,,,-99.99,,2013-03-07 02:01:00,
2013-03-06 19:11:00,50.0,13.0,-100.00,SSW,200,27.0,28.0,22,-99.99,,,-99.99,,2013-03-07 02:11:00,
2013-03-06 19:21:00,50.0,14.0,-100.00,SSW,201,23.0,29.0,23,-99.99,,,-99.99,,2013-03-07 02:21:00,
2013-03-06 19:31:00,50.0,13.0,-100.00,SSW,199,26.0,30.0,23,-99.99,,,-99.99,,2013-03-07 02:31:00,
2013-03-06 19:41:00,50.0,13.0,-100.00,SSW,199,26.0,30.0,23,-99.99,,,-99.99,,2013-03-07 02:41:00,
2013-03-06 19:51:00,50.0,13.0,-100.00,SSW,199,26.0,30.0,23,-99.99,,,-99.99,,2013-03-07 02:51:00,
2013-03-06 20:01:00,49.0,14.0,-100.00,SSW,203,21.0,26.0,23,-99.99,,,-99.99,,2013-03-07 03:01:00,
2013-03-06 20:11:00,48.0,14.0,-100.00,SW,221,14.0,16.0,25,-99.99,,,-99.99,,2013-03-07 03:11:00,
2013-03-06 20:21:00,48.0,14.0,-100.00,SSW,209,13.0,14.0,25,-99.99,,,-99.99,,2013-03-07 03:21:00,
2013-03-06 20:31:00,47.0,14.0,-100.00,SW,214,13.0,15.0,26,-99.99,,,-99.99,,2013-03-07 03:31:00,
2013-03-06 20:41:00,47.0,14.0,-100.00,SW,214,13.0,15.0,26,-99.99,,,-99.99,,2013-03-07 03:41:00,
2013-03-06 20:51:00,47.0,14.0,-100.00,SSW,212,12.0,14.0,26,-99.99,,,-99.99,,2013-03-07 03:51:00,
2013-03-06 21:01:00,47.0,14.0,-100.00,SSW,210,12.0,12.0,26,-99.99,,,-99.99,,2013-03-07 04:01:00,
2013-03-06 21:11:00,46.0,14.0,-100.00,SW,216,11.0,11.0,27,-99.99,,,-99.99,,2013-03-07 04:11:00,
2013-03-06 21:21:00,46.0,15.0,-100.00,SW,219,10.0,11.0,28,-99.99,,,-99.99,,2013-03-07 04:21:00,
2013-03-06 21:31:00,46.0,15.0,-100.00,SW,219,10.0,11.0,28,-99.99,,,-99.99,,2013-03-07 04:31:00,
2013-03-06 21:41:00,45.0,15.0,-100.00,SW,227,10.0,10.0,28,-99.99,,,-99.99,,2013-03-07 04:41:00,
2013-03-06 21:51:00,45.0,14.0,-100.00,West,272,4.0,6.0,28,-99.99,,,-99.99,,2013-03-07 04:51:00,
2013-03-06 22:01:00,46.0,13.0,-100.00,WSW,251,4.0,4.0,25,-99.99,,,-99.99,,2013-03-07 05:01:00,
2013-03-06 22:12:00,45.0,13.0,-100.00,South,187,2.0,2.0,27,-99.99,,,-99.99,,2013-03-07 05:12:00,
2013-03-06 22:22:00,45.0,13.0,-100.00,South,187,2.0,2.0,27,-99.99,,,-99.99,,2013-03-07 05:22:00,
2013-03-06 22:31:00,41.0,14.0,-100.00,SW,219,6.0,6.0,32,-99.99,,,-99.99,,2013-03-07 05:31:00,
2013-03-06 22:41:00,41.0,14.0,-100.00,SW,219,6.0,6.0,32,-99.99,,,-99.99,,2013-03-07 05:41:00,
2013-03-06 22:52:00,43.0,14.0,-100.00,WSW,243,7.0,7.0,30,-99.99,,,-99.99,,2013-03-07 05:52:00,
2013-03-06 23:01:00,43.0,14.0,-100.00,West,272,10.0,10.0,30,-99.99,,,-99.99,,2013-03-07 06:01:00,
2013-03-06 23:11:00,40.0,14.0,-100.00,West,263,10.0,10.0,33,-99.99,,,-99.99,,2013-03-07 06:11:00,
2013-03-06 23:21:00,40.0,14.0,-100.00,West,263,10.0,10.0,33,-99.99,,,-99.99,,2013-03-07 06:21:00,
2013-03-06 23:31:00,42.0,15.0,-100.00,SE,126,5.0,8.0,33,-99.99,,,-99.99,,2013-03-07 06:31:00,
2013-03-06 23:41:00,43.0,14.0,-100.00,SE,124,7.0,8.0,31,-99.99,,,-99.99,,2013-03-07 06:41:00,
2013-03-06 23:51:00,45.0,14.0,-100.00,ESE,122,5.0,11.0,28,-99.99,,,-99.99,,2013-03-07 06:51:00,